Weather History for Saipan, MP

Change the Weather History Date:

Wednesday, January 9, 2013

  Actual Average Record
Temperature  
Mean Temperature 78 °F -  
Max Temperature 81 °F 82 °F 86 °F (2007)
Min Temperature 75 °F 74 °F 73 °F (2012)
Cooling Degree Days 13    
Growing Degree Days 28 (Base 50)    
Moisture  
Dew Point 74 °F    
Average Humidity 91    
Maximum Humidity 97    
Minimum Humidity 78    
Precipitation  
Precipitation 0.55 in - - ()
Sea Level Pressure  
Sea Level Pressure 29.87 in    
Wind  
Wind Speed 16 mph (ENE)    
Max Wind Speed 24 mph    
Max Gust Speed 34 mph    
Visibility 8 miles    
Events Rain    
Averages and records for this station are not official NWS values.
T = Trace of Precipitation, MM = Missing Value Source: NWS Daily Summary

Daily Weather History Graph

Daily Weather History Graph

Search for Another Location

Airport:

Trip Planner

Search our weather history database for the weather conditions in past years. The results will help you decide how hot, cold, wet, or windy it might be!

Date:

Astronomy

Jan. 09, 2013 Rise Set
Actual Time 6:45 AM ChST 6:02 PM ChST
Civil Twilight 6:22 AM ChST 6:25 PM ChST
Nautical Twilight 5:55 AM ChST 6:52 PM ChST
Astronomical Twilight 5:29 AM ChST 7:18 PM ChST
Moon 3:43 AM ChST (1/9) 3:24 PM ChST (1/9)
Length of Visible Light 12h 03m
Length of Day
11h 17m
Waning Crescent, 11% of the Moon is Illuminated
Jan 9
Waning Crescent
Jan 12
New
Jan 19
First Quarter
Jan 27
Full
Feb 3
Last Quarter

Hourly Weather History & Observations

Time (ChST) Temp. Heat Index Dew Point Humidity Pressure Visibility Wind Dir Wind Speed Gust Speed Precip Events Conditions
12:54 AM 79.0 °F - 72.0 °F 79% 29.91 in 10.0 mi NE 16.1 mph 26.5 mph N/A   Scattered Clouds
1:54 AM 78.1 °F - 73.0 °F 84% 29.90 in 5.0 mi ENE 21.9 mph 29.9 mph 0.00 in Rain Rain
2:21 AM 75.2 °F - 73.4 °F 94% 29.82 in 2.5 mi ENE 17.3 mph 27.6 mph 0.09 in Rain Light Rain
2:26 AM 75.2 °F - 73.4 °F 94% 29.82 in 7.0 mi NE 16.1 mph - 0.09 in Rain Light Rain
2:54 AM 75.9 °F - 73.9 °F 94% 29.88 in 10.0 mi NE 17.3 mph 27.6 mph 0.10 in   Overcast
3:14 AM 75.2 °F - 73.4 °F 94% 29.81 in 10.0 mi NE 16.1 mph 26.5 mph N/A   Overcast
3:43 AM 75.2 °F - 73.4 °F 94% 29.80 in 10.0 mi NE 17.3 mph 26.5 mph N/A   Overcast
3:54 AM 75.0 °F - 73.0 °F 94% 29.87 in 10.0 mi NE 19.6 mph 29.9 mph 0.00 in Rain Light Rain
4:29 AM 78.8 °F - 71.6 °F 78% 29.81 in 10.0 mi NE 24.2 mph 28.8 mph N/A   Overcast
4:54 AM 78.1 °F - 72.0 °F 81% 29.88 in 7.0 mi NE 19.6 mph 26.5 mph N/A   Overcast
5:46 AM - - - N/A% 29.82 in 2.5 mi NE 19.6 mph 28.8 mph 0.01 in Rain Heavy Rain
5:54 AM 75.9 °F - 73.9 °F 94% 29.89 in 3.0 mi NE 19.6 mph 32.2 mph 0.03 in Rain Rain
5:57 AM 75.2 °F - 73.4 °F 94% 29.83 in 3.0 mi NE 16.1 mph 32.2 mph 0.00 in Rain Rain
6:36 AM 75.2 °F - 73.4 °F 94% 29.84 in 3.0 mi ENE 18.4 mph 34.5 mph 0.10 in Rain Rain
6:43 AM 75.2 °F - 73.4 °F 94% 29.85 in 3.0 mi NE 18.4 mph - 0.10 in Rain Rain
6:54 AM 75.9 °F - 73.9 °F 94% 29.91 in 3.0 mi ENE 11.5 mph - 0.10 in Rain Rain
7:08 AM 75.2 °F - 73.4 °F 94% 29.86 in 10.0 mi NE 13.8 mph 24.2 mph 0.01 in Rain Rain
7:25 AM 75.2 °F - 73.4 °F 94% 29.86 in 4.0 mi NE 16.1 mph 24.2 mph 0.02 in Rain Rain
7:33 AM 75.2 °F - 73.4 °F 94% 29.87 in 4.0 mi NE 12.7 mph - 0.03 in Rain Rain
7:54 AM 75.0 °F - 73.0 °F 94% 29.94 in 10.0 mi East 6.9 mph - 0.04 in   Overcast
8:54 AM 75.9 °F - 75.0 °F 97% 29.95 in 10.0 mi East 10.4 mph - 0.04 in   Overcast
9:54 AM 79.0 °F - 75.0 °F 88% 29.95 in 9.0 mi ENE 13.8 mph - 0.00 in Rain Light Rain
10:07 AM 77.0 °F - 73.4 °F 89% 29.88 in 1.8 mi East 17.3 mph - 0.00 in Rain Light Rain
10:14 AM 75.2 °F - 73.4 °F 94% 29.88 in 3.0 mi ENE 12.7 mph - 0.13 in Rain Rain
10:54 AM 78.1 °F - 75.9 °F 93% 29.92 in 10.0 mi NE 13.8 mph - 0.23 in   Mostly Cloudy
11:54 AM 81.0 °F 87.3 °F 75.9 °F 85% 29.89 in 10.0 mi NE 15.0 mph - N/A   Mostly Cloudy
12:54 PM 79.0 °F - 75.0 °F 88% 29.87 in 7.0 mi NE 13.8 mph - 0.00 in Rain Light Rain
1:54 PM 79.0 °F - 75.0 °F 88% 29.85 in 4.0 mi NE 15.0 mph 24.2 mph 0.00 in Rain Light Rain
2:54 PM 81.0 °F 86.7 °F 75.0 °F 82% 29.84 in 10.0 mi ENE 16.1 mph - 0.00 in   Mostly Cloudy
3:54 PM 81.0 °F 86.7 °F 75.0 °F 82% 29.85 in 10.0 mi ENE 15.0 mph - N/A   Mostly Cloudy
4:54 PM 78.1 °F - 75.9 °F 93% 29.86 in 10.0 mi NE 10.4 mph - 0.01 in   Mostly Cloudy
5:54 PM 77.0 °F - 75.0 °F 94% 29.88 in 10.0 mi ENE 11.5 mph - N/A   Mostly Cloudy
6:54 PM 77.0 °F - 73.9 °F 90% 29.89 in 10.0 mi ENE 11.5 mph - N/A   Mostly Cloudy
7:54 PM 75.9 °F - 73.9 °F 94% 29.90 in 10.0 mi ENE 13.8 mph - N/A   Mostly Cloudy
8:14 PM 77.0 °F - 75.2 °F 94% 29.83 in 10.0 mi ENE 11.5 mph - N/A   Mostly Cloudy
8:27 PM 75.2 °F - 73.4 °F 94% 29.83 in 10.0 mi ENE 12.7 mph - N/A   Mostly Cloudy
8:38 PM 77.0 °F - 73.4 °F 89% 29.83 in 10.0 mi ENE 15.0 mph - N/A   Mostly Cloudy
8:54 PM 75.9 °F - 73.9 °F 94% 29.90 in 10.0 mi ENE 15.0 mph - N/A   Mostly Cloudy
9:04 PM 75.2 °F - 73.4 °F 94% 29.84 in 10.0 mi ENE 12.7 mph - N/A   Mostly Cloudy
9:54 PM 75.9 °F - 73.9 °F 94% 29.91 in 10.0 mi ENE 13.8 mph - N/A   Mostly Cloudy
10:54 PM 75.0 °F - 73.0 °F 94% 29.91 in 10.0 mi East 11.5 mph - 0.00 in   Mostly Cloudy
11:54 PM 75.9 °F - 75.0 °F 97% 29.90 in 10.0 mi ENE 9.2 mph - N/A   Scattered Clouds